Location: Potomac Astrometric Observatory
(39.0475°N, 77.2064°W)
Time: 08:33:51
(UTC-04:00)

ISS - Visible Passes

Search period start: 23 September 2018 00:00
Search period end: 03 October 2018 00:00
Orbit: 403 x 408 km, 51.6° (Epoch: 23 September)

Date Brightness Start Highest point End Pass type
(mag) Time Alt. Az. Time Alt. Az. Time Alt. Az.
23 Sep -3.8 19:43:40 10° SW 19:46:55 63° SE 19:50:11 10° ENE visible
23 Sep -1.2 21:21:10 10° WNW 21:23:11 19° NW 21:23:11 19° NW visible
24 Sep -2.0 20:28:40 10° W 20:31:37 29° NNW 20:33:41 16° NNE visible
25 Sep -3.0 19:36:24 10° WSW 19:39:36 50° NW 19:42:50 10° NE visible
25 Sep -0.9 21:15:04 10° NW 21:16:44 13° NNW 21:16:44 13° NNW visible
26 Sep -1.2 20:22:15 10° WNW 20:24:32 17° NNW 20:26:50 10° NNE visible
27 Sep -1.8 19:29:37 10° W 19:32:24 25° NNW 19:35:12 10° NNE visible
27 Sep -0.7 21:09:30 10° NNW 21:09:48 10° N 21:09:48 10° N visible
28 Sep -1.0 20:16:10 10° NW 20:17:33 12° NNW 20:18:55 10° N visible
29 Sep -1.2 19:23:14 10° WNW 19:25:17 15° NNW 19:27:21 10° NNE visible
01 Oct -1.0 19:17:13 10° NNW 19:18:15 11° NNW 19:19:18 10° N visible
